| time (UTC) | temp F | wind direction | speed knots | gust knots | rain 1hr in | rain 24hr in | rain mn in | humidity % | barometer mb |
| 20260509013407 | 57 | 282 | 0.0 | 0.0 | 0.00 | 0.00 | 0.00 | 87 | 1009.9 |
| 20260509012845 | 57 | 282 | 0.0 | 0.0 | 0.00 | 0.00 | 0.00 | 87 | 1009.9 |
| 20260509012344 | 57 | 282 | 0.0 | 0.0 | 0.00 | 0.00 | 0.00 | 87 | 1009.9 |
| 20260509011845 | 57 | 282 | 0.0 | 0.0 | 0.00 | 0.00 | 0.00 | 86 | 1009.9 |
| 20260509011349 | 58 | 282 | 0.0 | 0.0 | 0.00 | 0.00 | 0.00 | 87 | 1009.6 |
| 20260509010850 | 58 | 282 | 0.0 | 0.0 | 0.00 | 0.00 | 0.00 | 86 | 1009.7 |
| 20260509010351 | 58 | 282 | 0.0 | 0.0 | 0.00 | 0.00 | 0.00 | 85 | 1009.9 |
| 20260509005850 | 58 | 302 | 0.0 | 0.0 | 0.00 | 0.00 | 0.00 | 85 | 1009.7 |
| 20260509005410 | 59 | 302 | 0.0 | 0.0 | 0.00 | 0.00 | 0.00 | 84 | 1009.7 |
| 20260509004851 | 59 | 302 | 0.0 | 0.0 | 0.00 | 0.00 | 0.00 | 84 | 1009.4 |
| 20260509004351 | 59 | 302 | 0.0 | 0.0 | 0.00 | 0.00 | 0.00 | 82 | 1009.2 |
| 20260509003853 | 59 | 302 | 0.0 | 0.0 | 0.00 | 0.00 | 0.00 | 82 | 1009.1 |
| 20260509003354 | 60 | 302 | 0.0 | 0.0 | 0.00 | 0.00 | 0.00 | 82 | 1009.0 |
| 20260509002852 | 60 | 302 | 0.0 | 0.0 | 0.00 | 0.00 | 0.00 | 81 | 1009.1 |
| 20260509002334 | 60 | 302 | 0.0 | 0.0 | 0.00 | 0.00 | 0.00 | 81 | 1009.1 |
| 20260509001851 | 60 | 302 | 0.0 | 0.0 | 0.00 | 0.00 | 0.00 | 80 | 1009.2 |
| 20260509001353 | 60 | 302 | 0.0 | 0.0 | 0.00 | 0.00 | 0.00 | 79 | 1009.2 |
| 20260509000854 | 61 | 302 | 0.0 | 0.0 | 0.00 | 0.00 | 0.00 | 79 | 1009.2 |
| 20260509000355 | 61 | 302 | 0.0 | 0.0 | 0.00 | 0.00 | 0.00 | 79 | 1009.2 |
| 20260508235853 | 61 | 302 | 0.0 | 0.0 | 0.00 | 0.00 | 0.00 | 79 | 1009.1 |
| 20260508235415 | 61 | 302 | 0.0 | 0.0 | 0.00 | 0.00 | 0.00 | 78 | 1009.1 |
| 20260508234835 | 61 | 302 | 0.0 | 0.0 | 0.00 | 0.00 | 0.00 | 78 | 1009.1 |
| 20260508234338 | 61 | 302 | 0.0 | 0.0 | 0.00 | 0.00 | 0.00 | 77 | 1009.1 |
| 20260508233841 | 61 | 302 | 0.0 | 0.0 | 0.00 | 0.00 | 0.00 | 76 | 1009.0 |
| 20260508233402 | 62 | 302 | 0.0 | 0.0 | 0.00 | 0.00 | 0.00 | 75 | 1008.9 |
| 20260508232841 | 62 | 302 | 0.0 | 0.0 | 0.00 | 0.00 | 0.00 | 76 | 1009.1 |
| 20260508232359 | 62 | 302 | 0.0 | 0.9 | 0.00 | 0.00 | 0.00 | 73 | 1009.2 |
| 20260508231839 | 63 | 313 | 0.0 | 0.0 | 0.00 | 0.00 | 0.00 | 74 | 1009.2 |
| 20260508231342 | 63 | 313 | 0.0 | 0.0 | 0.00 | 0.00 | 0.00 | 73 | 1009.2 |
| 20260508230843 | 63 | 313 | 0.0 | 0.0 | 0.00 | 0.00 | 0.00 | 71 | 1009.1 |
| 20260508230345 | 64 | 313 | 0.0 | 0.0 | 0.00 | 0.00 | 0.00 | 68 | 1009.0 |
| 20260508225903 | 64 | 313 | 0.0 | 0.0 | 0.00 | 0.00 | 0.00 | 66 | 1009.1 |
| 20260508225346 | 64 | 313 | 0.0 | 0.0 | 0.00 | 0.00 | 0.00 | 65 | 1009.0 |
| 20260508224846 | 64 | 313 | 0.0 | 0.0 | 0.00 | 0.00 | 0.00 | 63 | 1008.9 |
| 20260508224346 | 65 | 313 | 0.0 | 0.0 | 0.00 | 0.00 | 0.00 | 61 | 1008.9 |
| 20260508223850 | 65 | 313 | 0.0 | 0.0 | 0.00 | 0.00 | 0.00 | 61 | 1008.8 |
| 20260508223406 | 65 | 313 | 0.0 | 0.0 | 0.00 | 0.00 | 0.00 | 60 | 1008.7 |
| 20260508222843 | 65 | 313 | 0.0 | 0.0 | 0.00 | 0.00 | 0.00 | 60 | 1008.8 |
| 20260508222344 | 65 | 313 | 0.0 | 0.0 | 0.00 | 0.00 | 0.00 | 60 | 1008.8 |
| 20260508221845 | 66 | 313 | 0.0 | 0.0 | 0.00 | 0.00 | 0.00 | 59 | 1008.8 |
| 20260508221343 | 66 | 315 | 0.0 | 0.0 | 0.00 | 0.00 | 0.00 | 59 | 1008.8 |
| 20260508220843 | 66 | 315 | 0.0 | 0.0 | 0.00 | 0.00 | 0.00 | 58 | 1008.8 |
| 20260508220345 | 66 | 315 | 0.0 | 0.0 | 0.00 | 0.00 | 0.00 | 57 | 1008.8 |
| 20260508215903 | 66 | 315 | 0.0 | 0.0 | 0.00 | 0.00 | 0.00 | 57 | 1008.8 |
| 20260508215345 | 66 | 315 | 0.0 | 0.0 | 0.00 | 0.00 | 0.00 | 56 | 1008.7 |
| 20260508214906 | 67 | 281 | 0.0 | 0.0 | 0.00 | 0.00 | 0.00 | 53 | 1008.8 |
| 20260508214341 | 67 | 281 | 0.0 | 0.0 | 0.00 | 0.00 | 0.00 | 53 | 1008.8 |
| 20260508213843 | 67 | 302 | 0.0 | 0.0 | 0.00 | 0.00 | 0.00 | 54 | 1008.8 |
| 20260508213344 | 67 | 302 | 0.0 | 0.0 | 0.00 | 0.00 | 0.00 | 50 | 1008.8 |
| 20260508212843 | 67 | 302 | 0.0 | 0.0 | 0.00 | 0.00 | 0.00 | 49 | 1008.8 |
| 20260508212345 | 67 | 332 | 0.0 | 0.0 | 0.00 | 0.00 | 0.00 | 57 | 1008.9 |
| 20260508211848 | 67 | 11 | 0.0 | 0.0 | 0.00 | 0.00 | 0.00 | 51 | 1009.0 |
| 20260508211409 | 67 | 264 | 0.0 | 0.0 | 0.00 | 0.00 | 0.00 | 52 | 1009.0 |
| 20260508210850 | 67 | 263 | 0.0 | 0.0 | 0.00 | 0.00 | 0.00 | 53 | 1009.0 |
| 20260508210352 | 67 | 263 | 0.0 | 0.0 | 0.00 | 0.00 | 0.00 | 54 | 1009.1 |
| 20260508205850 | 67 | 291 | 0.0 | 0.0 | 0.00 | 0.00 | 0.00 | 50 | 1009.1 |
| 20260508205350 | 67 | 313 | 0.0 | 0.0 | 0.00 | 0.00 | 0.00 | 48 | 1009.3 |
| 20260508204851 | 67 | 269 | 0.0 | 0.0 | 0.00 | 0.00 | 0.00 | 49 | 1009.5 |
| 20260508204410 | 67 | 248 | 0.0 | 3.5 | 0.00 | 0.00 | 0.00 | 47 | 1009.6 |
| 20260508203851 | 68 | 281 | 0.0 | 3.5 | 0.00 | 0.00 | 0.00 | 49 | 1009.6 |
| 20260508203350 | 68 | 115 | 0.0 | 1.7 | 0.00 | 0.00 | 0.00 | 48 | 1009.8 |
| 20260508202848 | 68 | 294 | 0.0 | 1.7 | 0.00 | 0.00 | 0.00 | 46 | 1009.8 |
| 20260508202352 | 68 | 317 | 0.0 | 0.9 | 0.00 | 0.00 | 0.00 | 52 | 1009.9 |
| 20260508201853 | 68 | 270 | 0.0 | 0.0 | 0.00 | 0.00 | 0.00 | 48 | 1009.9 |
| 20260508201334 | 68 | 309 | 0.0 | 0.9 | 0.00 | 0.00 | 0.00 | 47 | 1009.9 |
| 20260508200837 | 68 | 291 | 0.0 | 0.9 | 0.00 | 0.00 | 0.00 | 46 | 1010.0 |
| 20260508200339 | 69 | 280 | 0.0 | 0.9 | 0.00 | 0.00 | 0.00 | 48 | 1010.0 |
| 20260508195839 | 69 | 296 | 0.0 | 0.9 | 0.00 | 0.00 | 0.00 | 44 | 1009.9 |
| 20260508195342 | 69 | 250 | 0.0 | 0.9 | 0.00 | 0.00 | 0.00 | 43 | 1010.0 |
| 20260508194843 | 69 | 350 | 0.0 | 4.3 | 0.00 | 0.00 | 0.00 | 45 | 1010.1 |
| 20260508194347 | 70 | 165 | 0.0 | 0.0 | 0.00 | 0.00 | 0.00 | 43 | 1010.2 |
| 20260508193842 | 70 | 317 | 0.0 | 0.0 | 0.00 | 0.00 | 0.00 | 44 | 1010.2 |
| 20260508193343 | 71 | 298 | 0.0 | 0.9 | 0.00 | 0.00 | 0.00 | 41 | 1010.2 |
| 20260508192843 | 71 | 212 | 0.0 | 0.9 | 0.00 | 0.00 | 0.00 | 39 | 1010.2 |
| 20260508192346 | 72 | 304 | 0.0 | 0.9 | 0.00 | 0.00 | 0.00 | 43 | 1010.1 |
| 20260508191846 | 73 | 305 | 0.0 | 0.9 | 0.00 | 0.00 | 0.00 | 41 | 1010.2 |
| 20260508191348 | 73 | 283 | 0.0 | 0.9 | 0.00 | 0.00 | 0.00 | 41 | 1010.3 |
| 20260508190908 | 73 | 291 | 0.0 | 3.5 | 0.00 | 0.00 | 0.00 | 43 | 1010.4 |
| 20260508190349 | 72 | 273 | 0.0 | 3.5 | 0.00 | 0.00 | 0.00 | 42 | 1010.4 |
| 20260508185849 | 72 | 297 | 0.0 | 6.1 | 0.00 | 0.00 | 0.00 | 44 | 1010.5 |
| 20260508185351 | 72 | 286 | 0.0 | 0.0 | 0.00 | 0.00 | 0.00 | 44 | 1010.5 |
| 20260508184852 | 72 | 142 | 0.0 | 0.9 | 0.00 | 0.00 | 0.00 | 42 | 1010.7 |
| 20260508184334 | 72 | 284 | 0.0 | 4.3 | 0.00 | 0.00 | 0.00 | 43 | 1010.9 |
| 20260508183853 | 72 | 178 | 0.0 | 7.0 | 0.00 | 0.00 | 0.00 | 42 | 1011.0 |
| 20260508183335 | 72 | 216 | 0.0 | 9.6 | 0.00 | 0.00 | 0.00 | 42 | 1011.1 |
| 20260508182914 | 71 | 319 | 0.9 | 9.6 | 0.00 | 0.00 | 0.00 | 46 | 1011.0 |
| 20260508182355 | 71 | 232 | 0.0 | 6.1 | 0.00 | 0.00 | 0.00 | 46 | 1011.1 |
| 20260508181834 | 70 | 294 | 0.0 | 0.0 | 0.00 | 0.00 | 0.00 | 47 | 1011.2 |
| 20260508181335 | 69 | 327 | 0.0 | 0.9 | 0.00 | 0.00 | 0.00 | 45 | 1011.3 |
| 20260508180836 | 69 | 284 | 0.0 | 4.3 | 0.00 | 0.00 | 0.00 | 47 | 1011.4 |
| 20260508180358 | 69 | 309 | 0.0 | 3.5 | 0.00 | 0.00 | 0.00 | 47 | 1011.5 |
| 20260508175915 | 69 | 267 | 0.0 | 0.9 | 0.00 | 0.00 | 0.00 | 46 | 1011.6 |
| 20260508175335 | 69 | 123 | 0.0 | 0.0 | 0.00 | 0.00 | 0.00 | 47 | 1011.7 |
| 20260508174855 | 69 | 286 | 0.0 | 0.0 | 0.00 | 0.00 | 0.00 | 47 | 1011.7 |
| 20260508174354 | 69 | 277 | 0.0 | 0.0 | 0.00 | 0.00 | 0.00 | 48 | 1011.8 |
| 20260508173855 | 68 | 275 | 0.0 | 0.0 | 0.00 | 0.00 | 0.00 | 49 | 1011.9 |
| 20260508173335 | 68 | 171 | 0.0 | 0.9 | 0.00 | 0.00 | 0.00 | 47 | 1012.0 |
| 20260508172856 | 68 | 288 | 0.0 | 0.9 | 0.00 | 0.00 | 0.00 | 46 | 1012.2 |
| 20260508172336 | 69 | 187 | 0.0 | 0.0 | 0.00 | 0.00 | 0.00 | 46 | 1012.2 |
| 20260508171838 | 69 | 289 | 0.0 | 0.9 | 0.00 | 0.00 | 0.00 | 50 | 1012.3 |
| 20260508171341 | 69 | 196 | 0.0 | 0.9 | 0.00 | 0.00 | 0.00 | 46 | 1012.3 |
| 20260508170841 | 70 | 144 | 0.0 | 0.9 | 0.00 | 0.00 | 0.00 | 47 | 1012.4 |
| 20260508170343 | 70 | 292 | 0.0 | 6.1 | 0.00 | 0.00 | 0.00 | 47 | 1012.4 |
| 20260508165842 | 70 | 300 | 0.9 | 6.1 | 0.00 | 0.00 | 0.00 | 46 | 1012.4 |
| 20260508165343 | 70 | 222 | 0.0 | 0.9 | 0.00 | 0.00 | 0.00 | 47 | 1012.5 |
| 20260508164842 | 70 | 295 | 0.0 | 1.7 | 0.00 | 0.00 | 0.00 | 47 | 1012.7 |
| 20260508164345 | 70 | 273 | 0.0 | 1.7 | 0.00 | 0.00 | 0.00 | 47 | 1012.8 |
| 20260508163845 | 70 | 254 | 0.0 | 5.2 | 0.00 | 0.00 | 0.00 | 45 | 1012.9 |
| 20260508163407 | 70 | 271 | 0.9 | 5.2 | 0.00 | 0.00 | 0.00 | 47 | 1012.9 |
| 20260508162845 | 70 | 230 | 0.0 | 0.9 | 0.00 | 0.00 | 0.00 | 47 | 1013.0 |
| 20260508162346 | 69 | 136 | 0.0 | 0.9 | 0.00 | 0.00 | 0.00 | 50 | 1013.1 |
| 20260508161848 | 69 | 279 | 0.0 | 0.9 | 0.00 | 0.00 | 0.00 | 50 | 1013.1 |
| 20260508161411 | 69 | 248 | 0.0 | 0.9 | 0.00 | 0.00 | 0.00 | 55 | 1013.1 |
| 20260508160851 | 68 | 327 | 0.0 | 0.9 | 0.00 | 0.00 | 0.00 | 49 | 1013.1 |
| 20260508160354 | 68 | 269 | 0.0 | 4.3 | 0.00 | 0.00 | 0.00 | 52 | 1013.1 |
| 20260508155851 | 67 | 298 | 0.0 | 4.3 | 0.00 | 0.00 | 0.00 | 50 | 1013.3 |
| 20260508155350 | 67 | 283 | 0.0 | 1.7 | 0.00 | 0.00 | 0.00 | 50 | 1013.3 |
| 20260508154911 | 67 | 209 | 0.0 | 1.7 | 0.00 | 0.00 | 0.00 | 52 | 1013.4 |
| 20260508154350 | 67 | 254 | 0.0 | 0.9 | 0.00 | 0.00 | 0.00 | 53 | 1013.5 |
| 20260508153910 | 66 | 219 | 0.0 | 0.9 | 0.00 | 0.00 | 0.00 | 52 | 1013.6 |
| 20260508153352 | 66 | 307 | 0.0 | 5.2 | 0.00 | 0.00 | 0.00 | 53 | 1013.6 |
| 20260508152851 | 66 | 285 | 0.0 | 0.9 | 0.00 | 0.00 | 0.00 | 52 | 1013.6 |
| 20260508152353 | 66 | 313 | 0.0 | 0.9 | 0.00 | 0.00 | 0.00 | 51 | 1013.7 |
| 20260508151854 | 66 | 317 | 0.0 | 3.5 | 0.00 | 0.00 | 0.00 | 53 | 1013.8 |
| 20260508151412 | 65 | 311 | 0.0 | 3.5 | 0.00 | 0.00 | 0.00 | 52 | 1013.7 |
| 20260508150852 | 65 | 317 | 0.0 | 0.0 | 0.00 | 0.00 | 0.00 | 55 | 1013.8 |
| 20260508150350 | 65 | 78 | 0.0 | 0.9 | 0.00 | 0.00 | 0.00 | 52 | 1013.9 |
| 20260508145908 | 65 | 240 | 0.0 | 0.9 | 0.00 | 0.00 | 0.00 | 52 | 1013.8 |
| 20260508145348 | 64 | 309 | 0.0 | 3.5 | 0.00 | 0.00 | 0.00 | 53 | 1013.8 |
| 20260508144850 | 64 | 284 | 0.0 | 3.5 | 0.00 | 0.00 | 0.00 | 56 | 1013.9 |
| 20260508144355 | 64 | 179 | 0.0 | 0.9 | 0.00 | 0.00 | 0.00 | 54 | 1013.9 |
| 20260508143854 | 63 | 317 | 0.0 | 0.9 | 0.00 | 0.00 | 0.00 | 54 | 1013.9 |
| 20260508143355 | 63 | 296 | 0.0 | 6.1 | 0.00 | 0.00 | 0.00 | 56 | 1014.0 |
| 20260508142913 | 62 | 221 | 0.0 | 6.1 | 0.00 | 0.00 | 0.00 | 53 | 1014.1 |
| 20260508142414 | 62 | 286 | 0.0 | 4.3 | 0.00 | 0.00 | 0.00 | 53 | 1014.1 |
| 20260508141912 | 62 | 294 | 0.0 | 0.9 | 0.00 | 0.00 | 0.00 | 55 | 1014.1 |
| 20260508141351 | 62 | 199 | 0.0 | 0.9 | 0.00 | 0.00 | 0.00 | 54 | 1014.2 |
| 20260508140853 | 61 | 279 | 0.0 | 0.0 | 0.00 | 0.00 | 0.00 | 55 | 1014.4 |
| 20260508140355 | 60 | 257 | 0.0 | 0.9 | 0.00 | 0.00 | 0.00 | 57 | 1014.4 |
| 20260508135853 | 60 | 319 | 0.0 | 0.9 | 0.00 | 0.00 | 0.00 | 55 | 1014.3 |
| 20260508135334 | 60 | 284 | 0.0 | 4.3 | 0.00 | 0.00 | 0.00 | 56 | 1014.3 |
| 20260508134838 | 60 | 102 | 0.0 | 4.3 | 0.00 | 0.00 | 0.00 | 55 | 1014.4 |
| 20260508134340 | 60 | 201 | 0.0 | 0.9 | 0.00 | 0.00 | 0.00 | 57 | 1014.3 |
| 20260508133841 | 59 | 286 | 0.0 | 0.9 | 0.00 | 0.00 | 0.00 | 58 | 1014.3 |
| 20260508133343 | 59 | 242 | 0.0 | 0.9 | 0.00 | 0.00 | 0.00 | 57 | 1014.3 |
| 20260508132902 | 58 | 263 | 0.0 | 0.9 | 0.00 | 0.00 | 0.00 | 56 | 1014.2 |
| 20260508132342 | 58 | 340 | 0.0 | 0.9 | 0.00 | 0.00 | 0.00 | 57 | 1014.2 |
| 20260508131845 | 58 | 355 | 0.0 | 0.9 | 0.00 | 0.00 | 0.00 | 58 | 1014.4 |
| 20260508131343 | 58 | 342 | 0.0 | 0.0 | 0.00 | 0.00 | 0.00 | 60 | 1014.4 |
| 20260508130845 | 57 | 218 | 0.0 | 0.0 | 0.00 | 0.00 | 0.00 | 61 | 1014.2 |
| 20260508130405 | 57 | 276 | 0.0 | 1.7 | 0.00 | 0.00 | 0.00 | 62 | 1014.3 |
| 20260508125843 | 57 | 313 | 0.0 | 1.7 | 0.00 | 0.00 | 0.00 | 60 | 1014.4 |
| 20260508125347 | 57 | 311 | 0.0 | 0.0 | 0.00 | 0.00 | 0.00 | 61 | 1014.3 |
| 20260508124848 | 56 | 321 | 0.0 | 0.0 | 0.00 | 0.00 | 0.00 | 63 | 1014.3 |
| 20260508124349 | 56 | 279 | 0.0 | 0.0 | 0.00 | 0.00 | 0.00 | 64 | 1014.2 |
| 20260508123850 | 55 | 308 | 0.0 | 0.9 | 0.00 | 0.00 | 0.00 | 64 | 1014.2 |
| 20260508123352 | 54 | 282 | 0.0 | 0.9 | 0.00 | 0.00 | 0.00 | 64 | 1014.2 |
| 20260508122850 | 54 | 293 | 0.0 | 0.9 | 0.00 | 0.00 | 0.00 | 67 | 1014.2 |
| 20260508122407 | 53 | 271 | 0.0 | 0.9 | 0.00 | 0.00 | 0.00 | 66 | 1014.1 |
| 20260508121847 | 53 | 316 | 0.0 | 0.9 | 0.00 | 0.00 | 0.00 | 69 | 1014.2 |
| 20260508121349 | 52 | 263 | 0.0 | 0.9 | 0.00 | 0.00 | 0.00 | 67 | 1014.2 |
| 20260508120852 | 51 | 279 | 0.0 | 1.7 | 0.00 | 0.00 | 0.00 | 70 | 1014.2 |
| 20260508120352 | 51 | 311 | 0.0 | 1.7 | 0.00 | 0.00 | 0.00 | 71 | 1014.1 |
| 20260508115852 | 50 | 183 | 0.0 | 0.0 | 0.00 | 0.00 | 0.00 | 72 | 1014.1 |
| 20260508115353 | 50 | 231 | 0.0 | 0.0 | 0.00 | 0.00 | 0.00 | 74 | 1014.1 |
| 20260508114854 | 49 | 309 | 0.0 | 0.0 | 0.00 | 0.00 | 0.00 | 75 | 1014.1 |
| 20260508114335 | 49 | 259 | 0.0 | 0.0 | 0.00 | 0.00 | 0.00 | 75 | 1014.0 |
| 20260508113836 | 48 | 246 | 0.0 | 0.0 | 0.00 | 0.00 | 0.00 | 76 | 1014.0 |
| 20260508113337 | 48 | 270 | 0.0 | 0.0 | 0.00 | 0.00 | 0.00 | 77 | 1014.0 |
| 20260508112835 | 48 | 270 | 0.0 | 0.0 | 0.00 | 0.00 | 0.00 | 77 | 1013.9 |
| 20260508112335 | 47 | 261 | 0.0 | 0.0 | 0.00 | 0.00 | 0.00 | 78 | 1013.9 |
| 20260508111839 | 47 | 261 | 0.0 | 0.0 | 0.00 | 0.00 | 0.00 | 80 | 1013.9 |
| 20260508111356 | 47 | 261 | 0.0 | 0.0 | 0.00 | 0.00 | 0.00 | 80 | 1013.8 |
| 20260508110858 | 46 | 216 | 0.0 | 0.0 | 0.00 | 0.00 | 0.00 | 82 | 1013.7 |
| 20260508110338 | 46 | 216 | 0.0 | 0.0 | 0.00 | 0.00 | 0.00 | 82 | 1013.6 |
| 20260508105837 | 46 | 289 | 0.0 | 0.0 | 0.00 | 0.00 | 0.00 | 84 | 1013.5 |
| 20260508105341 | 45 | 294 | 0.0 | 0.0 | 0.00 | 0.00 | 0.00 | 86 | 1013.5 |
| 20260508104904 | 45 | 222 | 0.0 | 0.0 | 0.00 | 0.00 | 0.00 | 88 | 1013.6 |
| 20260508104346 | 45 | 222 | 0.0 | 0.0 | 0.00 | 0.00 | 0.00 | 89 | 1013.7 |
| 20260508103848 | 45 | 222 | 0.0 | 0.0 | 0.00 | 0.00 | 0.00 | 90 | 1013.7 |
| 20260508103410 | 44 | 222 | 0.0 | 0.0 | 0.00 | 0.00 | 0.00 | 90 | 1013.8 |
| 20260508102844 | 44 | 222 | 0.0 | 0.0 | 0.00 | 0.00 | 0.00 | 90 | 1013.8 |
| 20260508102346 | 44 | 222 | 0.0 | 0.0 | 0.00 | 0.00 | 0.00 | 91 | 1013.8 |
| 20260508101846 | 44 | 222 | 0.0 | 0.0 | 0.00 | 0.00 | 0.00 | 91 | 1013.8 |
| 20260508101349 | 44 | 222 | 0.0 | 0.0 | 0.00 | 0.00 | 0.00 | 91 | 1013.8 |
| 20260508100851 | 44 | 222 | 0.0 | 0.0 | 0.00 | 0.00 | 0.00 | 91 | 1013.8 |
| 20260508100352 | 44 | 222 | 0.0 | 0.0 | 0.00 | 0.00 | 0.00 | 91 | 1013.8 |
| 20260508095852 | 44 | 222 | 0.0 | 0.0 | 0.00 | 0.00 | 0.00 | 91 | 1013.8 |
| 20260508095354 | 44 | 222 | 0.0 | 0.0 | 0.00 | 0.00 | 0.00 | 91 | 1013.7 |
| 20260508094856 | 44 | 222 | 0.0 | 0.0 | 0.00 | 0.00 | 0.00 | 91 | 1013.8 |
| 20260508094336 | 44 | 222 | 0.0 | 0.0 | 0.00 | 0.00 | 0.00 | 91 | 1013.8 |
| 20260508093838 | 44 | 222 | 0.0 | 0.0 | 0.00 | 0.00 | 0.00 | 91 | 1013.8 |
| 20260508093341 | 44 | 222 | 0.0 | 0.0 | 0.00 | 0.00 | 0.00 | 91 | 1013.9 |
| 20260508092839 | 43 | 222 | 0.0 | 0.0 | 0.00 | 0.00 | 0.00 | 91 | 1013.9 |
| 20260508092342 | 43 | 222 | 0.0 | 0.0 | 0.00 | 0.00 | 0.00 | 91 | 1013.9 |
| 20260508091839 | 43 | 222 | 0.0 | 0.0 | 0.00 | 0.00 | 0.00 | 91 | 1013.9 |
| 20260508091400 | 43 | 222 | 0.0 | 0.0 | 0.00 | 0.00 | 0.00 | 91 | 1013.9 |
| 20260508090840 | 43 | 222 | 0.0 | 0.0 | 0.00 | 0.00 | 0.00 | 91 | 1013.8 |
| 20260508090342 | 43 | 222 | 0.0 | 0.0 | 0.00 | 0.00 | 0.00 | 91 | 1013.8 |
| 20260508085842 | 43 | 222 | 0.0 | 0.0 | 0.00 | 0.00 | 0.00 | 91 | 1013.9 |
| 20260508085405 | 43 | 222 | 0.0 | 0.0 | 0.00 | 0.00 | 0.00 | 91 | 1014.0 |
| 20260508084846 | 43 | 222 | 0.0 | 0.0 | 0.00 | 0.00 | 0.00 | 91 | 1013.9 |
| 20260508084347 | 43 | 222 | 0.0 | 0.0 | 0.00 | 0.00 | 0.00 | 91 | 1013.9 |
| 20260508083848 | 43 | 222 | 0.0 | 0.0 | 0.00 | 0.00 | 0.00 | 91 | 1014.0 |
| 20260508083351 | 42 | 222 | 0.0 | 0.0 | 0.00 | 0.00 | 0.00 | 91 | 1014.0 |
| 20260508082846 | 42 | 222 | 0.0 | 0.0 | 0.00 | 0.00 | 0.00 | 90 | 1013.9 |
| 20260508082408 | 42 | 222 | 0.0 | 0.0 | 0.00 | 0.00 | 0.00 | 90 | 1013.8 |
| 20260508081849 | 42 | 222 | 0.0 | 0.0 | 0.00 | 0.00 | 0.00 | 90 | 1013.7 |
| 20260508081350 | 42 | 222 | 0.0 | 0.0 | 0.00 | 0.00 | 0.00 | 89 | 1013.7 |
| 20260508080850 | 42 | 222 | 0.0 | 0.0 | 0.00 | 0.00 | 0.00 | 89 | 1013.7 |
| 20260508080411 | 42 | 222 | 0.0 | 0.0 | 0.00 | 0.00 | 0.00 | 89 | 1013.7 |
| 20260508075848 | 42 | 222 | 0.0 | 0.0 | 0.00 | 0.00 | 0.00 | 89 | 1013.6 |
| 20260508075351 | 42 | 222 | 0.0 | 0.0 | 0.00 | 0.00 | 0.00 | 88 | 1013.6 |
| 20260508074854 | 42 | 222 | 0.0 | 0.0 | 0.00 | 0.00 | 0.00 | 88 | 1013.6 |
| 20260508074416 | 42 | 222 | 0.0 | 0.0 | 0.00 | 0.00 | 0.00 | 88 | 1013.6 |
| 20260508073835 | 42 | 222 | 0.0 | 0.0 | 0.00 | 0.00 | 0.00 | 87 | 1013.6 |
| 20260508073353 | 42 | 222 | 0.0 | 0.0 | 0.00 | 0.00 | 0.00 | 87 | 1013.7 |
| 20260508072854 | 42 | 222 | 0.0 | 0.0 | 0.00 | 0.00 | 0.00 | 87 | 1013.6 |
| 20260508072354 | 42 | 222 | 0.0 | 0.0 | 0.00 | 0.00 | 0.00 | 87 | 1013.5 |
| 20260508071854 | 42 | 222 | 0.0 | 0.0 | 0.00 | 0.00 | 0.00 | 86 | 1013.7 |
| 20260508071335 | 43 | 222 | 0.0 | 0.0 | 0.00 | 0.00 | 0.00 | 86 | 1013.7 |
| 20260508070837 | 43 | 222 | 0.0 | 0.0 | 0.00 | 0.00 | 0.00 | 86 | 1013.7 |
| 20260508070400 | 43 | 222 | 0.0 | 0.0 | 0.00 | 0.00 | 0.00 | 86 | 1013.8 |
| 20260508065917 | 43 | 222 | 0.0 | 0.0 | 0.00 | 0.00 | 0.00 | 86 | 1013.8 |
| 20260508065336 | 43 | 222 | 0.0 | 0.0 | 0.00 | 0.00 | 0.00 | 85 | 1013.8 |
| 20260508064838 | 43 | 222 | 0.0 | 0.0 | 0.00 | 0.00 | 0.00 | 85 | 1013.9 |
| 20260508064336 | 43 | 222 | 0.0 | 0.0 | 0.00 | 0.00 | 0.00 | 84 | 1013.9 |
| 20260508063838 | 43 | 222 | 0.0 | 0.0 | 0.00 | 0.00 | 0.00 | 84 | 1014.1 |
| 20260508063340 | 43 | 222 | 0.0 | 0.0 | 0.00 | 0.00 | 0.00 | 83 | 1014.2 |
| 20260508062840 | 43 | 222 | 0.0 | 0.0 | 0.00 | 0.00 | 0.00 | 83 | 1014.2 |
| 20260508062342 | 43 | 222 | 0.0 | 0.0 | 0.00 | 0.00 | 0.00 | 83 | 1014.3 |
| 20260508061843 | 43 | 222 | 0.0 | 0.0 | 0.00 | 0.00 | 0.00 | 83 | 1014.4 |
| 20260508061345 | 43 | 222 | 0.0 | 0.0 | 0.00 | 0.00 | 0.00 | 83 | 1014.4 |
| 20260508060848 | 44 | 222 | 0.0 | 0.0 | 0.00 | 0.00 | 0.00 | 83 | 1014.3 |
| 20260508060348 | 44 | 222 | 0.0 | 0.0 | 0.00 | 0.00 | 0.00 | 83 | 1014.4 |
| 20260508055847 | 44 | 222 | 0.0 | 0.0 | 0.00 | 0.00 | 0.00 | 82 | 1014.3 |
| 20260508055349 | 44 | 222 | 0.0 | 0.0 | 0.00 | 0.00 | 0.00 | 82 | 1014.3 |
| 20260508054853 | 44 | 222 | 0.0 | 0.0 | 0.00 | 0.00 | 0.00 | 82 | 1014.3 |
| 20260508054410 | 44 | 222 | 0.0 | 0.0 | 0.00 | 0.00 | 0.00 | 82 | 1014.3 |
| 20260508053851 | 44 | 222 | 0.0 | 0.0 | 0.00 | 0.00 | 0.00 | 82 | 1014.5 |
| 20260508053354 | 44 | 222 | 0.0 | 0.0 | 0.00 | 0.00 | 0.00 | 82 | 1014.4 |
| 20260508052851 | 44 | 222 | 0.0 | 0.0 | 0.00 | 0.00 | 0.00 | 82 | 1014.4 |
| 20260508052353 | 44 | 222 | 0.0 | 0.0 | 0.00 | 0.00 | 0.00 | 82 | 1014.5 |
| 20260508051855 | 44 | 222 | 0.0 | 0.0 | 0.00 | 0.00 | 0.00 | 81 | 1014.4 |
| 20260508051338 | 44 | 222 | 0.0 | 0.0 | 0.00 | 0.00 | 0.00 | 81 | 1014.4 |
| 20260508050900 | 44 | 222 | 0.0 | 0.0 | 0.00 | 0.00 | 0.00 | 81 | 1014.4 |
| 20260508050342 | 44 | 222 | 0.0 | 0.0 | 0.00 | 0.00 | 0.00 | 81 | 1014.3 |
| 20260508045842 | 44 | 222 | 0.0 | 0.0 | 0.00 | 0.00 | 0.00 | 81 | 1014.2 |
| 20260508045400 | 45 | 222 | 0.0 | 0.0 | 0.00 | 0.00 | 0.00 | 81 | 1014.2 |
| 20260508044858 | 45 | 222 | 0.0 | 0.0 | 0.00 | 0.00 | 0.00 | 81 | 1014.3 |
| 20260508044339 | 45 | 222 | 0.0 | 0.0 | 0.00 | 0.00 | 0.00 | 81 | 1014.3 |
| 20260508043840 | 45 | 222 | 0.0 | 0.0 | 0.00 | 0.00 | 0.00 | 82 | 1014.2 |
| 20260508043342 | 45 | 222 | 0.0 | 0.0 | 0.00 | 0.00 | 0.00 | 82 | 1014.2 |
| 20260508042840 | 45 | 300 | 0.0 | 0.0 | 0.00 | 0.00 | 0.00 | 82 | 1014.2 |
| 20260508042403 | 45 | 263 | 0.0 | 0.0 | 0.00 | 0.00 | 0.00 | 81 | 1014.1 |
| 20260508041845 | 45 | 263 | 0.0 | 0.0 | 0.00 | 0.00 | 0.00 | 82 | 1014.1 |
| 20260508041409 | 46 | 263 | 0.0 | 0.0 | 0.00 | 0.00 | 0.00 | 82 | 1014.2 |
| 20260508040850 | 46 | 263 | 0.0 | 0.0 | 0.00 | 0.00 | 0.00 | 82 | 1014.2 |
| 20260508040350 | 46 | 263 | 0.0 | 0.0 | 0.00 | 0.00 | 0.00 | 82 | 1014.2 |
| 20260508035844 | 46 | 263 | 0.0 | 0.0 | 0.00 | 0.00 | 0.00 | 81 | 1014.1 |
| 20260508035347 | 46 | 263 | 0.0 | 0.0 | 0.00 | 0.00 | 0.00 | 80 | 1014.0 |
| 20260508034848 | 46 | 263 | 0.0 | 0.0 | 0.00 | 0.00 | 0.00 | 79 | 1014.0 |
| 20260508034350 | 46 | 263 | 0.0 | 0.0 | 0.00 | 0.00 | 0.00 | 79 | 1014.1 |
| 20260508033853 | 46 | 263 | 0.0 | 0.0 | 0.00 | 0.00 | 0.00 | 80 | 1014.1 |
| 20260508033354 | 47 | 263 | 0.0 | 0.0 | 0.00 | 0.00 | 0.00 | 80 | 1014.1 |
| 20260508032853 | 47 | 263 | 0.0 | 0.0 | 0.00 | 0.00 | 0.00 | 80 | 1014.1 |
| 20260508032337 | 47 | 263 | 0.0 | 0.0 | 0.00 | 0.00 | 0.00 | 79 | 1014.2 |
| 20260508031838 | 47 | 263 | 0.0 | 0.0 | 0.00 | 0.00 | 0.00 | 78 | 1014.1 |
| 20260508031341 | 47 | 263 | 0.0 | 0.0 | 0.00 | 0.00 | 0.00 | 77 | 1014.1 |
| 20260508030844 | 47 | 263 | 0.0 | 0.0 | 0.00 | 0.00 | 0.00 | 77 | 1014.1 |
| 20260508030344 | 47 | 263 | 0.0 | 0.0 | 0.00 | 0.00 | 0.00 | 78 | 1014.0 |
| 20260508025843 | 47 | 263 | 0.0 | 0.0 | 0.00 | 0.00 | 0.00 | 76 | 1014.0 |
| 20260508025343 | 47 | 263 | 0.0 | 0.0 | 0.00 | 0.00 | 0.00 | 76 | 1013.9 |
| 20260508024842 | 47 | 263 | 0.0 | 0.0 | 0.00 | 0.00 | 0.00 | 76 | 1013.9 |
| 20260508024345 | 47 | 263 | 0.0 | 0.0 | 0.00 | 0.00 | 0.00 | 77 | 1014.0 |
| 20260508023848 | 47 | 263 | 0.0 | 0.0 | 0.00 | 0.00 | 0.00 | 78 | 1014.1 |
| 20260508023411 | 47 | 263 | 0.0 | 0.0 | 0.00 | 0.00 | 0.00 | 77 | 1014.2 |
| 20260508022849 | 48 | 263 | 0.0 | 0.0 | 0.00 | 0.00 | 0.00 | 78 | 1014.2 |
| 20260508022349 | 48 | 263 | 0.0 | 0.0 | 0.00 | 0.00 | 0.00 | 75 | 1014.1 |
| 20260508021851 | 48 | 263 | 0.0 | 0.0 | 0.00 | 0.00 | 0.00 | 73 | 1014.0 |
| 20260508021412 | 48 | 263 | 0.0 | 0.0 | 0.00 | 0.00 | 0.00 | 73 | 1013.9 |
| 20260508020853 | 48 | 263 | 0.0 | 0.0 | 0.00 | 0.00 | 0.00 | 73 | 1013.9 |
| 20260508020355 | 48 | 263 | 0.0 | 0.0 | 0.00 | 0.00 | 0.00 | 72 | 1013.9 |
| 20260508015854 | 48 | 263 | 0.0 | 0.0 | 0.00 | 0.00 | 0.00 | 71 | 1014.0 |
| 20260508015335 | 49 | 263 | 0.0 | 0.0 | 0.00 | 0.00 | 0.00 | 71 | 1013.9 |
| 20260508014854 | 49 | 263 | 0.0 | 0.0 | 0.00 | 0.00 | 0.00 | 71 | 1013.8 |
| 20260508014354 | 49 | 263 | 0.0 | 0.0 | 0.00 | 0.00 | 0.00 | 71 | 1013.9 |
| 20260508013853 | 49 | 263 | 0.0 | 0.0 | 0.00 | 0.00 | 0.00 | 70 | 1013.9 |